Weather History for KMIW - December, 2013

Change the Weather History Date:

Sunday, December 15, 2013

  Actual Average Record
Temperature  
Mean Temperature 9 °F 22 °F  
Max Temperature 12 °F 31 °F - ()
Min Temperature 5 °F 14 °F - ()
Degree Days  
Heating Degree Days 56 43  
Month to date heating degree days 732 600  
Since 1 July heating degree days 2227 2096  
Cooling Degree Days 0 0  
Month to date cooling degree days 0 0  
Year to date cooling degree days 872 728  
Moisture  
Dew Point 4 °F    
Average Humidity 72    
Maximum Humidity 83    
Minimum Humidity 61    
Precipitation  
Precipitation 0.02 in 0.03 in - ()
Month to date precipitation 0.18 0.59  
Sea Level Pressure  
Sea Level Pressure 30.13 in    
Wind  
Wind Speed 9 mph (North)    
Max Wind Speed 21 mph    
Max Gust Speed 23 mph    
Visibility 8 miles    
Events Snow    
T = Trace of Precipitation, MM = Missing Value Source: NWS Daily Summary

Daily Weather History Graph

Daily Weather History Graph

Search for Another Location

Airport or City:

Trip Planner

Search our weather history database for the weather conditions in past years. The results will help you decide how hot, cold, wet, or windy it might be!

Date:

Astronomy

Dec. 15, 2013 Rise Set
Actual Time 7:33 AM CST 4:40 PM CST
Civil Twilight 7:01 AM CST 5:12 PM CST
Nautical Twilight 6:26 AM CST 5:47 PM CST
Astronomical Twilight 5:52 AM CST 6:21 PM CST
Moon 3:46 PM CST (12/15) 5:48 AM CST (12/15)
Length of Visible Light 10h 11m
Length of Day
9h 07m
Waxing Gibbous, 98% of the Moon is Illuminated
Dec 15
Waxing Gibbous
Dec 17
Full
Dec 25
Last Quarter
Jan 1
New
Jan 7
First Quarter

Hourly Weather History & Observations

Time (CST) Temp. Windchill Dew Point Humidity Pressure Visibility Wind Dir Wind Speed Gust Speed Precip Events Conditions
12:15 AM 10.9 °F -6.5 °F 6.1 °F 81% 30.10 in 10.0 mi WNW 17.3 mph - N/A   Overcast
12:42 AM 10.0 °F -6.5 °F 5.0 °F 80% 30.11 in 10.0 mi WNW 15.0 mph - N/A   Scattered Clouds
12:53 AM 9.0 °F -6.6 °F 3.0 °F 77% 30.16 in 10.0 mi WNW 12.7 mph - N/A   Partly Cloudy
1:53 AM 7.0 °F -9.1 °F 1.0 °F 77% 30.17 in 10.0 mi NW 12.7 mph - N/A   Clear
2:53 AM 7.0 °F -7.5 °F 1.9 °F 80% 30.15 in 10.0 mi WNW 10.4 mph - N/A   Mostly Cloudy
3:53 AM 8.1 °F -10.2 °F 1.9 °F 76% 30.16 in 10.0 mi NW 17.3 mph - N/A   Overcast
4:53 AM 8.1 °F -9.0 °F 1.9 °F 76% 30.15 in 10.0 mi WNW 15.0 mph - N/A   Overcast
5:53 AM 9.0 °F -5.9 °F 1.9 °F 73% 30.14 in 10.0 mi NW 11.5 mph - N/A   Overcast
6:53 AM 9.0 °F -5.1 °F 1.9 °F 73% 30.15 in 10.0 mi NW 10.4 mph - N/A   Overcast
7:53 AM 9.0 °F -4.2 °F 3.0 °F 77% 30.14 in 10.0 mi NNW 9.2 mph - N/A   Overcast
8:53 AM 10.0 °F -1.9 °F 1.9 °F 70% 30.17 in 10.0 mi NW 8.1 mph - N/A   Overcast
9:53 AM 10.0 °F -0.9 °F 3.0 °F 73% 30.17 in 10.0 mi WNW 6.9 mph - N/A   Overcast
10:53 AM 10.9 °F 0.2 °F 3.0 °F 70% 30.17 in 10.0 mi NW 6.9 mph - N/A   Overcast
11:53 AM 10.9 °F 1.4 °F 1.9 °F 67% 30.14 in 10.0 mi NNW 5.8 mph - N/A   Overcast
12:53 PM 10.9 °F 0.2 °F 3.0 °F 70% 30.14 in 10.0 mi NW 6.9 mph - N/A   Overcast
1:53 PM 12.0 °F 4.1 °F 3.0 °F 67% 30.12 in 10.0 mi North 4.6 mph - N/A   Overcast
2:53 PM 12.0 °F 2.7 °F 1.9 °F 64% 30.12 in 10.0 mi NNE 5.8 mph - N/A   Overcast
3:53 PM 12.0 °F 4.1 °F 3.0 °F 67% 30.13 in 10.0 mi NNE 4.6 mph - N/A   Overcast
4:53 PM 12.0 °F 2.7 °F 3.9 °F 70% 30.13 in 10.0 mi NNE 5.8 mph - N/A   Overcast
5:53 PM 10.9 °F 2.9 °F 5.0 °F 77% 30.12 in 9.0 mi NE 4.6 mph - 0.00 in   Overcast
6:53 PM 10.9 °F -1.8 °F 7.0 °F 84% 30.12 in 6.0 mi ENE 9.2 mph - 0.00 in Snow Light Snow
7:20 PM 10.0 °F -2.9 °F 7.0 °F 87% 30.06 in 2.0 mi NE 9.2 mph - 0.00 in Snow Light Snow
7:24 PM 10.0 °F -1.9 °F 7.0 °F 87% 30.07 in 1.8 mi ENE 8.1 mph - 0.00 in Snow Light Snow
7:53 PM 10.0 °F 1.8 °F 7.0 °F 87% 30.14 in 1.2 mi East 4.6 mph - 0.01 in Snow Light Snow
8:30 PM 10.0 °F 3.6 °F 7.0 °F 87% 30.09 in 2.0 mi ENE 3.5 mph - 0.01 in Snow Light Snow
8:40 PM 10.0 °F 3.6 °F 7.0 °F 87% 30.09 in 5.0 mi ENE 3.5 mph - 0.01 in Snow Light Snow
8:53 PM 10.0 °F 0.4 °F 7.0 °F 87% 30.14 in 6.0 mi ESE 5.8 mph - 0.01 in Snow Light Snow
9:53 PM 10.9 °F 0.2 °F 7.0 °F 84% 30.12 in 7.0 mi East 6.9 mph - 0.00 in Snow Light Snow
10:31 PM 10.9 °F -3.4 °F 7.0 °F 84% 30.07 in 10.0 mi ENE 11.5 mph - 0.00 in   Overcast
10:53 PM 10.9 °F -2.6 °F 7.0 °F 84% 30.11 in 10.0 mi East 10.4 mph - 0.00 in   Overcast
11:36 PM 10.9 °F -2.6 °F 7.0 °F 84% 30.06 in 10.0 mi East 10.4 mph - N/A   Overcast
11:53 PM 10.9 °F -2.6 °F 7.0 °F 84% 30.13 in 10.0 mi East 10.4 mph - N/A   Overcast